Location: Barcelona
(41.3829°N, 2.1774°E)
Time: 13:01:43
(UTC+00:00)

ISS - Pass Details

Date: 13 July 2024
Orbit: 410 x 424 km, 51.6° (Epoch: 14 July)

Event Time Altitude Azimuth Distance (km) Brightness Sun altitude
Rises 23:25:23 0° 308° (NW) 2,343 0.7 -26.6°
Reaches altitude 10° 23:28:01 10° 330° (NNW) 1,482 -0.1 -26.6°
Maximum altitude 23:30:15 17° 12° (NNE) 1,147 -0.8 -26.7°
Enters shadow 23:32:01 12° 48° (NE) 1,368 -0.8 -26.7°
